TimeEST,TemperatureF,Dew PointF,Humidity,Sea Level PressureIn,VisibilityMPH,Wind Direction,Wind SpeedMPH,Gust SpeedMPH,PrecipitationIn,Events,Conditions,WindDirDegrees,DateUTC
12:53 AM,17.1,3.9,56,30.15,10.0,South,6.9,-,N/A,,Partly Cloudy,180,2013-01-03 05:53:00
2:53 AM,19.0,8.1,62,30.13,10.0,South,8.1,-,N/A,,Overcast,180,2013-01-03 07:53:00
3:53 AM,19.9,10.9,68,30.12,10.0,South,9.2,-,N/A,,Overcast,180,2013-01-03 08:53:00
4:04 AM,19.4,10.4,68,30.10,10.0,SSW,8.1,-,N/A,,Overcast,200,2013-01-03 09:04:00
4:53 AM,19.9,12.0,71,30.12,10.0,South,9.2,-,N/A,,Overcast,190,2013-01-03 09:53:00
5:32 AM,21.2,14.0,74,30.08,8.0,SSW,9.2,-,0.00,,Overcast,200,2013-01-03 10:32:00
5:53 AM,21.0,14.0,74,30.11,7.0,SSW,8.1,-,0.00,,Overcast,200,2013-01-03 10:53:00
6:26 AM,21.2,15.8,80,30.07,8.0,South,9.2,-,N/A,,Overcast,190,2013-01-03 11:26:00
6:53 AM,21.9,16.0,78,30.11,8.0,SSW,6.9,-,N/A,,Overcast,200,2013-01-03 11:53:00
7:53 AM,25.0,19.9,81,30.10,7.0,South,6.9,-,N/A,,Overcast,190,2013-01-03 12:53:00
8:04 AM,24.8,21.2,86,30.08,7.0,SSW,6.9,-,N/A,,Overcast,210,2013-01-03 13:04:00
8:53 AM,30.0,26.1,85,30.12,6.0,West,17.3,23.0,N/A,,Overcast,260,2013-01-03 13:53:00
9:41 AM,30.2,-9999,N/A,30.11,5.0,West,16.1,-,N/A,,Haze,280,2013-01-03 14:41:00
9:48 AM,30.2,-9999,N/A,30.10,5.0,West,13.8,23.0,N/A,,Haze,280,2013-01-03 14:48:00
9:53 AM,30.9,25.0,79,30.13,5.0,West,17.3,21.9,N/A,,Haze,270,2013-01-03 14:53:00
10:53 AM,32.0,25.0,75,30.15,7.0,West,19.6,28.8,N/A,,Overcast,270,2013-01-03 15:53:00
11:53 AM,30.9,25.0,79,30.14,7.0,West,16.1,25.3,N/A,,Overcast,270,2013-01-03 16:53:00
12:53 PM,32.0,25.0,75,30.14,8.0,WNW,15.0,23.0,N/A,,Overcast,290,2013-01-03 17:53:00
1:53 PM,32.0,23.0,69,30.14,10.0,West,19.6,27.6,N/A,,Overcast,270,2013-01-03 18:53:00
2:53 PM,30.9,23.0,72,30.15,10.0,West,16.1,23.0,N/A,,Overcast,280,2013-01-03 19:53:00
3:53 PM,30.9,23.0,72,30.17,10.0,West,13.8,-,N/A,,Overcast,280,2013-01-03 20:53:00
4:53 PM,30.9,23.0,72,30.19,10.0,West,16.1,-,N/A,,Overcast,280,2013-01-03 21:53:00
5:53 PM,30.9,23.0,72,30.21,10.0,West,11.5,-,N/A,,Overcast,270,2013-01-03 22:53:00
6:53 PM,30.9,24.1,76,30.22,9.0,West,11.5,-,N/A,,Overcast,280,2013-01-03 23:53:00
7:53 PM,30.9,24.1,76,30.23,8.0,West,13.8,-,N/A,,Overcast,280,2013-01-04 00:53:00
8:53 PM,30.9,23.0,72,30.23,8.0,West,15.0,19.6,N/A,,Overcast,280,2013-01-04 01:53:00
9:53 PM,30.0,23.0,75,30.23,7.0,West,11.5,-,N/A,,Overcast,280,2013-01-04 02:53:00
10:53 PM,30.0,23.0,75,30.23,9.0,West,15.0,-,N/A,,Overcast,280,2013-01-04 03:53:00
11:53 PM,30.0,23.0,75,30.23,10.0,West,18.4,24.2,N/A,,Overcast,260,2013-01-04 04:53:00